sat.trackr.live / text

‹ back to catalog

STARLINK-35844

NORAD 66880 · 2025-283C

PAYLOAD ACTIVE UNKNOWN

§ Identity

Operator
Country
US
Launch date
2025-12-04
Launch site
AFWTR
Launch vehicle
Mass (kg)
RCS (m²)

Purposes: comms

External: N2YO · Heavens-Above · Gunter

§ Orbital elements

Epoch: 2026-05-24T22:59:46.232736Z

Period
94.10 min
Inclination
53.1599°
Eccentricity
0.0000853
Mean motion
15.30208094 rev/d
Perigee alt
474.6 km
Apogee alt
475.8 km
Semi-major
6,853.3 km
B*
4.7759e-4
RAAN
29.7346°
Arg perigee
86.4118°
Mean anomaly
273.6980°
Rev number
2,752

§ Raw data

STARLINK-358441 66880U 25283C   26144.95817399  .00013816  00000+0  47759-3 0  99992 66880  53.1599  29.7346 0000853  86.4118 273.6980 15.30208094 27520

JSON: /api/v1/satellites/66880 · /tle

For live sub-satellite position, see the globe view (requires WebGL).

§ Visibility from observer

Set your observer location to see the next 7 days of passes ≥ 10°. The values pass through the URL so the page stays shareable.

No JS? Fill the form by hand. The geolocation button needs JavaScript.